TimeEDT,TemperatureF,Dew PointF,Humidity,Sea Level PressureIn,VisibilityMPH,Wind Direction,Wind SpeedMPH,Gust SpeedMPH,PrecipitationIn,Events,Conditions,WindDirDegrees,DateUTC
12:53 AM,77.0,73.0,88,29.96,10.0,ENE,6.9,-,N/A,,Clear,70,2012-10-15 04:53:00
1:53 AM,75.9,73.0,91,29.94,10.0,ENE,5.8,-,N/A,,Clear,70,2012-10-15 05:53:00
2:53 AM,75.0,72.0,90,29.93,10.0,ENE,6.9,-,N/A,,Clear,60,2012-10-15 06:53:00
3:53 AM,75.0,72.0,90,29.90,10.0,ENE,6.9,-,N/A,,Clear,70,2012-10-15 07:53:00
4:53 AM,73.9,72.0,93,29.89,10.0,ENE,5.8,-,N/A,,Scattered Clouds,60,2012-10-15 08:53:00
5:06 AM,73.4,71.6,94,29.88,10.0,NE,4.6,-,N/A,,Mostly Cloudy,50,2012-10-15 09:06:00
5:14 AM,73.4,71.6,94,29.88,10.0,ENE,5.8,-,N/A,,Scattered Clouds,60,2012-10-15 09:14:00
5:53 AM,73.9,72.0,93,29.89,10.0,ENE,5.8,-,N/A,,Clear,60,2012-10-15 09:53:00
6:53 AM,73.9,72.0,93,29.89,10.0,ENE,5.8,-,N/A,,Clear,60,2012-10-15 10:53:00
7:08 AM,73.4,71.6,94,29.89,10.0,ENE,4.6,-,N/A,,Mostly Cloudy,60,2012-10-15 11:08:00
7:53 AM,75.0,72.0,90,29.91,10.0,NE,6.9,-,N/A,,Mostly Cloudy,50,2012-10-15 11:53:00
8:19 AM,75.2,71.6,89,29.89,10.0,East,6.9,-,N/A,,Scattered Clouds,80,2012-10-15 12:19:00
8:53 AM,77.0,73.0,88,29.91,10.0,ENE,6.9,-,N/A,,Partly Cloudy,70,2012-10-15 12:53:00
9:53 AM,80.1,73.9,81,29.92,10.0,ENE,6.9,-,N/A,,Clear,70,2012-10-15 13:53:00
10:53 AM,82.9,73.0,72,29.92,10.0,ENE,5.8,-,N/A,,Scattered Clouds,70,2012-10-15 14:53:00
11:53 AM,84.9,73.0,67,29.92,10.0,NE,6.9,-,N/A,,Scattered Clouds,40,2012-10-15 15:53:00
12:53 PM,88.0,71.1,57,29.89,10.0,Calm,Calm,-,N/A,,Mostly Cloudy,0,2012-10-15 16:53:00
1:53 PM,87.1,70.0,57,29.86,10.0,East,3.5,-,N/A,,Clear,100,2012-10-15 17:53:00
2:53 PM,88.0,70.0,55,29.83,10.0,Variable,3.5,-,N/A,,Scattered Clouds,0,2012-10-15 18:53:00
3:28 PM,86.0,73.4,66,29.83,10.0,WNW,16.1,-,N/A,,Mostly Cloudy,300,2012-10-15 19:28:00
3:53 PM,82.0,73.0,74,29.84,10.0,NNW,17.3,-,N/A,,Overcast,330,2012-10-15 19:53:00
4:02 PM,80.6,73.4,79,29.83,10.0,North,11.5,23.0,0.00,Rain,Light Rain,10,2012-10-15 20:02:00
4:16 PM,78.8,73.4,83,29.83,9.0,NNE,12.7,23.0,0.00,Rain,Light Rain,30,2012-10-15 20:16:00
4:53 PM,78.1,73.9,87,29.83,10.0,NNE,8.1,-,0.00,,Overcast,30,2012-10-15 20:53:00
5:53 PM,81.0,73.9,79,29.81,10.0,Calm,Calm,-,N/A,,Clear,0,2012-10-15 21:53:00
6:53 PM,81.0,72.0,74,29.81,10.0,North,5.8,-,N/A,,Clear,350,2012-10-15 22:53:00
7:53 PM,80.1,72.0,76,29.82,10.0,North,3.5,-,N/A,,Clear,360,2012-10-15 23:53:00
8:53 PM,80.1,73.9,81,29.84,10.0,NNW,4.6,-,N/A,,Mostly Cloudy,340,2012-10-16 00:53:00
9:53 PM,79.0,73.9,84,29.86,10.0,Calm,Calm,-,0.03,,Mostly Cloudy,0,2012-10-16 01:53:00
10:53 PM,78.1,73.0,84,29.86,10.0,Calm,Calm,-,N/A,,Partly Cloudy,0,2012-10-16 02:53:00
11:53 PM,77.0,73.9,90,29.86,10.0,Calm,Calm,-,N/A,,Clear,0,2012-10-16 03:53:00